| time (UTC) | temp F | wind direction | speed knots | gust knots | rain 1hr in | rain 24hr in | rain mn in | humidity % | barometer mb |
| 20260510114957 | 32 | 178 | 0.0 | 0.9 | 0.00 | 0.00 | 0.00 | 87 | 1015.0 |
| 20260510114458 | 32 | 178 | 0.0 | 0.9 | 0.00 | 0.00 | 0.00 | 87 | 1015.0 |
| 20260510113957 | 31 | 178 | 0.0 | 0.0 | 0.00 | 0.00 | 0.00 | 86 | 1014.9 |
| 20260510113458 | 31 | 178 | 0.0 | 0.0 | 0.00 | 0.00 | 0.00 | 86 | 1015.0 |
| 20260510112958 | 31 | 178 | 0.0 | 0.0 | 0.00 | 0.00 | 0.00 | 85 | 1014.9 |
| 20260510112457 | 31 | 178 | 0.0 | 0.0 | 0.00 | 0.00 | 0.00 | 85 | 1014.8 |
| 20260510111957 | 31 | 178 | 0.0 | 0.0 | 0.00 | 0.00 | 0.00 | 84 | 1014.8 |
| 20260510111458 | 31 | 178 | 0.0 | 0.0 | 0.00 | 0.00 | 0.00 | 84 | 1014.8 |
| 20260510110957 | 31 | 178 | 0.0 | 0.0 | 0.00 | 0.00 | 0.00 | 84 | 1014.7 |
| 20260510110458 | 31 | 178 | 0.0 | 0.0 | 0.00 | 0.00 | 0.00 | 84 | 1014.7 |
| 20260510105958 | 31 | 178 | 0.0 | 0.9 | 0.00 | 0.00 | 0.00 | 83 | 1014.6 |
| 20260510105458 | 31 | 178 | 0.0 | 0.9 | 0.00 | 0.00 | 0.00 | 83 | 1014.7 |
| 20260510104957 | 31 | 176 | 0.0 | 0.9 | 0.00 | 0.00 | 0.00 | 82 | 1014.5 |
| 20260510104458 | 31 | 176 | 0.0 | 0.9 | 0.00 | 0.00 | 0.00 | 82 | 1014.4 |
| 20260510103958 | 31 | 176 | 0.0 | 0.0 | 0.00 | 0.00 | 0.00 | 81 | 1014.3 |
| 20260510103458 | 31 | 176 | 0.0 | 0.9 | 0.00 | 0.00 | 0.00 | 81 | 1014.2 |
| 20260510102958 | 31 | 176 | 0.0 | 0.9 | 0.00 | 0.00 | 0.00 | 80 | 1014.2 |
| 20260510102457 | 31 | 26 | 0.0 | 0.9 | 0.00 | 0.00 | 0.00 | 80 | 1013.9 |
| 20260510101958 | 31 | 26 | 0.0 | 0.9 | 0.00 | 0.00 | 0.00 | 79 | 1013.8 |
| 20260510101457 | 31 | 26 | 0.0 | 0.9 | 0.00 | 0.00 | 0.00 | 79 | 1013.6 |
| 20260510100958 | 32 | 26 | 0.0 | 0.9 | 0.00 | 0.00 | 0.00 | 79 | 1013.6 |
| 20260510100457 | 32 | 54 | 0.0 | 0.9 | 0.00 | 0.00 | 0.00 | 79 | 1013.6 |
| 20260510100000 | 32 | 54 | 0.0 | 0.9 | 0.00 | 0.00 | 0.00 | 78 | 1013.5 |
| 20260510095500 | 32 | 54 | 0.0 | 0.9 | 0.00 | 0.00 | 0.00 | 78 | 1013.5 |
| 20260510094958 | 32 | 54 | 0.0 | 0.0 | 0.00 | 0.00 | 0.00 | 77 | 1013.5 |
| 20260510094459 | 32 | 54 | 0.0 | 1.7 | 0.00 | 0.00 | 0.00 | 77 | 1013.4 |
| 20260510094000 | 33 | 54 | 0.9 | 1.7 | 0.00 | 0.00 | 0.00 | 77 | 1013.4 |
| 20260510093500 | 33 | 77 | 0.0 | 0.0 | 0.00 | 0.00 | 0.00 | 75 | 1013.3 |
| 20260510092959 | 33 | 77 | 0.0 | 0.0 | 0.00 | 0.00 | 0.00 | 75 | 1013.3 |
| 20260510092459 | 33 | 77 | 0.0 | 0.0 | 0.00 | 0.00 | 0.00 | 74 | 1013.3 |
| 20260510091959 | 33 | 77 | 0.0 | 0.0 | 0.00 | 0.00 | 0.00 | 73 | 1013.2 |
| 20260510091459 | 34 | 77 | 0.0 | 0.0 | 0.00 | 0.00 | 0.00 | 73 | 1013.2 |
| 20260510091000 | 34 | 77 | 0.0 | 0.0 | 0.00 | 0.00 | 0.00 | 73 | 1013.2 |
| 20260510090459 | 34 | 77 | 0.0 | 0.0 | 0.00 | 0.00 | 0.00 | 73 | 1013.2 |
| 20260510090001 | 34 | 77 | 0.0 | 0.0 | 0.00 | 0.00 | 0.00 | 73 | 1013.1 |
| 20260510085458 | 35 | 77 | 0.0 | 0.0 | 0.00 | 0.00 | 0.00 | 73 | 1013.0 |
| 20260510084959 | 35 | 77 | 0.0 | 0.0 | 0.00 | 0.00 | 0.00 | 72 | 1012.8 |
| 20260510084459 | 35 | 77 | 0.0 | 0.0 | 0.00 | 0.00 | 0.00 | 73 | 1012.8 |
| 20260510084000 | 35 | 77 | 0.0 | 0.0 | 0.00 | 0.00 | 0.00 | 72 | 1012.7 |
| 20260510083500 | 36 | 77 | 0.0 | 0.0 | 0.00 | 0.00 | 0.00 | 72 | 1012.5 |
| 20260510083000 | 36 | 77 | 0.0 | 0.0 | 0.00 | 0.00 | 0.00 | 72 | 1012.5 |
| 20260510074959 | 38 | 77 | 0.0 | 0.0 | 0.00 | 0.00 | 0.00 | 66 | 1012.0 |
| 20260510074459 | 38 | 77 | 0.0 | 0.0 | 0.00 | 0.00 | 0.00 | 66 | 1012.0 |
| 20260510073958 | 38 | 77 | 0.0 | 0.0 | 0.00 | 0.00 | 0.00 | 65 | 1011.8 |
| 20260510073458 | 39 | 77 | 0.0 | 0.0 | 0.00 | 0.00 | 0.00 | 65 | 1011.8 |
| 20260510072958 | 39 | 77 | 0.0 | 0.0 | 0.00 | 0.00 | 0.00 | 65 | 1011.8 |
| 20260510072458 | 40 | 77 | 0.0 | 0.0 | 0.00 | 0.00 | 0.00 | 64 | 1011.8 |
| 20260510071958 | 40 | 77 | 0.0 | 0.0 | 0.00 | 0.00 | 0.00 | 64 | 1011.8 |
| 20260510071459 | 40 | 77 | 0.0 | 0.0 | 0.00 | 0.00 | 0.00 | 64 | 1011.7 |
| 20260510070958 | 40 | 77 | 0.0 | 0.0 | 0.00 | 0.00 | 0.00 | 63 | 1011.6 |
| 20260510070458 | 41 | 77 | 0.0 | 0.0 | 0.00 | 0.00 | 0.00 | 63 | 1011.4 |
| 20260510070000 | 41 | 77 | 0.0 | 0.0 | 0.00 | 0.00 | 0.00 | 62 | 1011.5 |
| 20260510065458 | 41 | 77 | 0.0 | 0.0 | 0.00 | 0.00 | 0.00 | 62 | 1011.5 |
| 20260510064958 | 42 | 77 | 0.0 | 0.0 | 0.00 | 0.00 | 0.00 | 62 | 1011.5 |
| 20260510064458 | 42 | 77 | 0.0 | 0.9 | 0.00 | 0.00 | 0.00 | 62 | 1011.5 |
| 20260510063959 | 42 | 77 | 0.0 | 0.9 | 0.00 | 0.00 | 0.00 | 62 | 1011.4 |
| 20260510063458 | 43 | 77 | 0.0 | 1.7 | 0.00 | 0.00 | 0.00 | 62 | 1011.4 |
| 20260510062958 | 43 | 77 | 0.0 | 1.7 | 0.00 | 0.00 | 0.00 | 62 | 1011.4 |
| 20260510062459 | 43 | 88 | 0.9 | 2.6 | 0.00 | 0.00 | 0.00 | 62 | 1011.3 |
| 20260510061958 | 43 | 136 | 0.9 | 5.2 | 0.00 | 0.00 | 0.00 | 61 | 1011.5 |
| 20260510061459 | 43 | 65 | 0.0 | 5.2 | 0.00 | 0.00 | 0.00 | 60 | 1011.6 |
| 20260510060958 | 43 | 137 | 0.0 | 1.7 | 0.00 | 0.00 | 0.00 | 60 | 1011.4 |
| 20260510060458 | 43 | 140 | 0.9 | 5.2 | 0.00 | 0.00 | 0.00 | 60 | 1011.3 |
| 20260510060000 | 44 | 74 | 0.9 | 5.2 | 0.00 | 0.00 | 0.00 | 60 | 1011.4 |
| 20260510055459 | 44 | 245 | 0.9 | 5.2 | 0.00 | 0.00 | 0.00 | 60 | 1011.4 |
| 20260510054958 | 44 | 56 | 0.9 | 4.3 | 0.00 | 0.00 | 0.00 | 60 | 1011.2 |
| 20260510054458 | 44 | 79 | 0.9 | 4.3 | 0.00 | 0.00 | 0.00 | 60 | 1011.1 |
| 20260510053958 | 44 | 355 | 0.9 | 3.5 | 0.00 | 0.00 | 0.00 | 60 | 1011.1 |
| 20260510053500 | 45 | 60 | 1.7 | 3.5 | 0.00 | 0.00 | 0.00 | 60 | 1011.0 |
| 20260510052958 | 45 | 70 | 0.9 | 3.5 | 0.00 | 0.00 | 0.00 | 61 | 1010.8 |
| 20260510052459 | 45 | 72 | 0.0 | 1.7 | 0.00 | 0.00 | 0.00 | 60 | 1010.7 |
| 20260510051958 | 45 | 69 | 0.0 | 4.3 | 0.00 | 0.00 | 0.00 | 60 | 1010.6 |
| 20260510051458 | 46 | 59 | 0.0 | 4.3 | 0.00 | 0.00 | 0.00 | 59 | 1010.5 |
| 20260510051000 | 46 | 74 | 0.9 | 4.3 | 0.00 | 0.00 | 0.00 | 59 | 1010.4 |
| 20260510050459 | 46 | 68 | 0.9 | 4.3 | 0.00 | 0.00 | 0.00 | 58 | 1010.3 |
| 20260510050001 | 47 | 22 | 0.0 | 1.7 | 0.00 | 0.00 | 0.00 | 58 | 1010.2 |
| 20260510045500 | 47 | 47 | 0.9 | 2.6 | 0.00 | 0.00 | 0.00 | 58 | 1010.0 |
| 20260510044959 | 47 | 46 | 0.0 | 2.6 | 0.00 | 0.00 | 0.00 | 57 | 1009.7 |
| 20260510044500 | 47 | 51 | 0.9 | 2.6 | 0.00 | 0.00 | 0.00 | 57 | 1009.5 |
| 20260510044000 | 48 | 30 | 0.0 | 5.2 | 0.00 | 0.00 | 0.00 | 57 | 1009.4 |
| 20260510043500 | 48 | 55 | 1.7 | 5.2 | 0.00 | 0.00 | 0.00 | 57 | 1009.4 |
| 20260510042959 | 48 | 44 | 1.7 | 7.0 | 0.00 | 0.00 | 0.00 | 56 | 1009.2 |
| 20260510042459 | 49 | 28 | 0.9 | 7.0 | 0.00 | 0.00 | 0.00 | 56 | 1009.1 |
| 20260510041959 | 49 | 80 | 1.7 | 4.3 | 0.00 | 0.00 | 0.00 | 56 | 1009.0 |
| 20260510041459 | 49 | 86 | 1.7 | 5.2 | 0.00 | 0.00 | 0.00 | 57 | 1009.0 |
| 20260510040959 | 49 | 32 | 1.7 | 4.3 | 0.00 | 0.00 | 0.00 | 58 | 1008.9 |
| 20260510040459 | 49 | 20 | 0.9 | 3.5 | 0.00 | 0.00 | 0.00 | 59 | 1008.7 |
| 20260510040003 | 49 | 64 | 0.9 | 2.6 | 0.00 | 0.00 | 0.00 | 59 | 1008.5 |
| 20260510035459 | 49 | 180 | 0.9 | 2.6 | 0.00 | 0.00 | 0.00 | 60 | 1008.4 |
| 20260510034958 | 49 | 351 | 0.9 | 7.0 | 0.00 | 0.00 | 0.00 | 60 | 1008.4 |
| 20260510034459 | 49 | 266 | 0.9 | 7.0 | 0.00 | 0.00 | 0.00 | 61 | 1008.2 |
| 20260510033958 | 49 | 321 | 1.7 | 5.2 | 0.00 | 0.00 | 0.00 | 61 | 1008.1 |
| 20260510033459 | 49 | 284 | 1.7 | 4.3 | 0.00 | 0.00 | 0.00 | 62 | 1007.9 |
| 20260510032958 | 48 | 351 | 1.7 | 4.3 | 0.00 | 0.00 | 0.00 | 62 | 1007.9 |
| 20260510032458 | 48 | 323 | 0.9 | 4.3 | 0.00 | 0.00 | 0.00 | 62 | 1007.8 |
| 20260510031958 | 49 | 323 | 0.9 | 1.7 | 0.00 | 0.00 | 0.00 | 62 | 1007.9 |
| 20260510031458 | 49 | 295 | 0.9 | 1.7 | 0.00 | 0.00 | 0.00 | 62 | 1007.8 |
| 20260510030958 | 49 | 282 | 0.0 | 2.6 | 0.00 | 0.00 | 0.00 | 61 | 1007.8 |
| 20260510030458 | 49 | 300 | 0.0 | 2.6 | 0.00 | 0.00 | 0.00 | 61 | 1007.7 |
| 20260510030002 | 50 | 299 | 0.0 | 0.9 | 0.00 | 0.00 | 0.00 | 61 | 1007.7 |
| 20260510025459 | 50 | 282 | 0.0 | 1.7 | 0.00 | 0.00 | 0.00 | 60 | 1007.6 |
| 20260510024959 | 50 | 282 | 0.0 | 1.7 | 0.00 | 0.00 | 0.00 | 60 | 1007.5 |
| 20260510024459 | 51 | 301 | 0.0 | 1.7 | 0.00 | 0.00 | 0.00 | 60 | 1007.4 |
| 20260510024000 | 51 | 305 | 0.0 | 0.9 | 0.00 | 0.00 | 0.00 | 59 | 1007.4 |
| 20260510023459 | 51 | 305 | 0.0 | 2.6 | 0.00 | 0.00 | 0.00 | 58 | 1007.2 |
| 20260510022959 | 52 | 305 | 0.0 | 2.6 | 0.00 | 0.00 | 0.00 | 58 | 1007.2 |
| 20260510022459 | 52 | 276 | 0.0 | 0.9 | 0.00 | 0.00 | 0.00 | 57 | 1007.1 |
| 20260510021959 | 53 | 304 | 0.0 | 0.9 | 0.00 | 0.00 | 0.00 | 56 | 1007.0 |
| 20260510021458 | 53 | 304 | 0.0 | 0.9 | 0.00 | 0.00 | 0.00 | 55 | 1006.9 |
| 20260510020958 | 53 | 304 | 0.0 | 1.7 | 0.00 | 0.00 | 0.00 | 55 | 1006.8 |
| 20260510020459 | 54 | 304 | 0.0 | 1.7 | 0.00 | 0.00 | 0.00 | 55 | 1006.8 |
| 20260510012500 | 56 | 307 | 0.9 | 4.3 | 0.00 | 0.00 | 0.00 | 53 | 1006.1 |
| 20260510011959 | 56 | 305 | 0.9 | 8.7 | 0.00 | 0.00 | 0.00 | 53 | 1005.9 |
| 20260510011458 | 56 | 331 | 1.7 | 8.7 | 0.00 | 0.00 | 0.00 | 52 | 1005.6 |
| 20260510011000 | 56 | 282 | 2.6 | 5.2 | 0.00 | 0.00 | 0.00 | 52 | 1005.7 |
| 20260510010459 | 57 | 306 | 2.6 | 5.2 | 0.00 | 0.00 | 0.00 | 52 | 1005.5 |
| 20260510005959 | 57 | 323 | 2.6 | 4.3 | 0.00 | 0.00 | 0.00 | 51 | 1005.5 |
| 20260510005459 | 58 | 321 | 1.7 | 5.2 | 0.00 | 0.00 | 0.00 | 50 | 1005.3 |
| 20260510004959 | 58 | 334 | 1.7 | 5.2 | 0.00 | 0.00 | 0.00 | 50 | 1005.2 |
| 20260510004459 | 58 | 305 | 1.7 | 4.3 | 0.00 | 0.00 | 0.00 | 49 | 1005.2 |
| 20260510003959 | 58 | 297 | 1.7 | 10.4 | 0.00 | 0.00 | 0.00 | 49 | 1005.1 |
| 20260510003459 | 58 | 261 | 5.2 | 10.4 | 0.00 | 0.00 | 0.00 | 48 | 1005.0 |
| 20260510003000 | 59 | 320 | 3.5 | 10.4 | 0.00 | 0.00 | 0.00 | 48 | 1004.9 |
| 20260509235459 | 60 | 324 | 4.3 | 11.3 | 0.00 | 0.00 | 0.00 | 48 | 1004.2 |
| 20260509234959 | 60 | 271 | 4.3 | 11.3 | 0.00 | 0.00 | 0.00 | 47 | 1004.1 |
| 20260509234459 | 61 | 318 | 4.3 | 11.3 | 0.00 | 0.00 | 0.00 | 46 | 1004.1 |
| 20260509233958 | 61 | 276 | 4.3 | 11.3 | 0.00 | 0.00 | 0.00 | 45 | 1003.9 |
| 20260509233459 | 61 | 276 | 3.5 | 14.8 | 0.00 | 0.00 | 0.00 | 45 | 1003.8 |
| 20260509232959 | 62 | 330 | 4.3 | 14.8 | 0.00 | 0.00 | 0.00 | 44 | 1003.7 |
| 20260509232459 | 62 | 328 | 4.3 | 11.3 | 0.00 | 0.00 | 0.00 | 43 | 1003.7 |
| 20260509231959 | 62 | 255 | 2.6 | 13.0 | 0.00 | 0.00 | 0.00 | 43 | 1003.7 |
| 20260509231459 | 62 | 7 | 5.2 | 13.0 | 0.00 | 0.00 | 0.00 | 42 | 1003.6 |
| 20260509230959 | 62 | 316 | 5.2 | 12.2 | 0.00 | 0.00 | 0.00 | 41 | 1003.7 |
| 20260509230459 | 63 | 271 | 3.5 | 10.4 | 0.00 | 0.00 | 0.00 | 41 | 1003.5 |
| 20260509230001 | 63 | 291 | 5.2 | 15.6 | 0.00 | 0.00 | 0.00 | 40 | 1003.5 |
| 20260509225459 | 63 | 1 | 7.0 | 15.6 | 0.00 | 0.00 | 0.00 | 38 | 1003.3 |
| 20260509224958 | 63 | 297 | 3.5 | 12.2 | 0.00 | 0.00 | 0.00 | 39 | 1003.1 |
| 20260509224459 | 64 | 312 | 4.3 | 13.0 | 0.00 | 0.00 | 0.00 | 38 | 1003.0 |
| 20260509223958 | 64 | 236 | 3.5 | 13.0 | 0.00 | 0.00 | 0.00 | 39 | 1003.0 |
| 20260509223459 | 64 | 295 | 5.2 | 13.9 | 0.00 | 0.00 | 0.00 | 39 | 1002.9 |
| 20260509222959 | 65 | 266 | 7.0 | 13.9 | 0.00 | 0.00 | 0.00 | 37 | 1002.7 |
| 20260509222458 | 65 | 291 | 4.3 | 12.2 | 0.00 | 0.00 | 0.00 | 40 | 1002.5 |
| 20260509221958 | 66 | 259 | 2.6 | 12.2 | 0.00 | 0.00 | 0.00 | 39 | 1002.5 |
| 20260509221458 | 66 | 285 | 3.5 | 11.3 | 0.00 | 0.00 | 0.00 | 41 | 1002.3 |
| 20260509220958 | 66 | 303 | 5.2 | 11.3 | 0.00 | 0.00 | 0.00 | 40 | 1002.2 |
| 20260509220458 | 66 | 276 | 3.5 | 13.9 | 0.00 | 0.00 | 0.00 | 42 | 1002.2 |
| 20260509215959 | 66 | 313 | 3.5 | 13.9 | 0.00 | 0.00 | 0.00 | 41 | 1002.1 |
| 20260509215458 | 66 | 306 | 5.2 | 12.2 | 0.00 | 0.00 | 0.00 | 41 | 1002.1 |
| 20260509214959 | 67 | 314 | 3.5 | 9.6 | 0.00 | 0.00 | 0.00 | 41 | 1002.0 |
| 20260509214459 | 66 | 283 | 3.5 | 8.7 | 0.00 | 0.00 | 0.00 | 43 | 1001.9 |
| 20260509213959 | 67 | 328 | 3.5 | 9.6 | 0.00 | 0.00 | 0.00 | 41 | 1001.9 |
| 20260509213458 | 67 | 214 | 4.3 | 9.6 | 0.00 | 0.00 | 0.00 | 43 | 1001.7 |
| 20260509212959 | 67 | 271 | 3.5 | 10.4 | 0.00 | 0.00 | 0.00 | 42 | 1001.7 |
| 20260509212458 | 67 | 261 | 4.3 | 10.4 | 0.00 | 0.00 | 0.00 | 41 | 1001.8 |
| 20260509211959 | 67 | 295 | 1.7 | 10.4 | 0.00 | 0.00 | 0.00 | 42 | 1001.7 |
| 20260509211500 | 67 | 353 | 2.6 | 13.0 | 0.00 | 0.00 | 0.00 | 43 | 1001.7 |
| 20260509210959 | 67 | 201 | 3.5 | 10.4 | 0.00 | 0.00 | 0.00 | 43 | 1001.6 |
| 20260509210459 | 67 | 276 | 3.5 | 10.4 | 0.00 | 0.00 | 0.00 | 42 | 1001.7 |
| 20260509205958 | 67 | 350 | 4.3 | 10.4 | 0.00 | 0.00 | 0.00 | 41 | 1001.7 |
| 20260509205458 | 67 | 266 | 2.6 | 13.0 | 0.00 | 0.00 | 0.00 | 42 | 1001.6 |
| 20260509204959 | 66 | 247 | 5.2 | 13.0 | 0.00 | 0.00 | 0.00 | 41 | 1001.6 |
| 20260509204459 | 67 | 309 | 4.3 | 9.6 | 0.00 | 0.00 | 0.00 | 43 | 1001.7 |
| 20260509203959 | 67 | 242 | 3.5 | 12.2 | 0.00 | 0.00 | 0.00 | 42 | 1001.8 |
| 20260509203459 | 66 | 228 | 5.2 | 12.2 | 0.00 | 0.00 | 0.00 | 42 | 1001.7 |
| 20260509202959 | 66 | 240 | 3.5 | 13.0 | 0.00 | 0.00 | 0.00 | 43 | 1001.8 |
| 20260509202458 | 67 | 250 | 5.2 | 11.3 | 0.00 | 0.00 | 0.00 | 43 | 1001.8 |
| 20260509191959 | 64 | 284 | 5.2 | 11.3 | 0.00 | 0.00 | 0.00 | 48 | 1001.7 |
| 20260509191459 | 64 | 259 | 5.2 | 15.6 | 0.00 | 0.00 | 0.00 | 50 | 1001.7 |
| 20260509190959 | 64 | 271 | 4.3 | 13.9 | 0.00 | 0.00 | 0.00 | 51 | 1001.7 |
| 20260509190459 | 63 | 340 | 6.1 | 13.9 | 0.00 | 0.00 | 0.00 | 53 | 1001.7 |
| 20260509190000 | 63 | 288 | 7.0 | 12.2 | 0.00 | 0.00 | 0.00 | 53 | 1001.6 |
| 20260509185459 | 63 | 244 | 5.2 | 15.6 | 0.00 | 0.00 | 0.00 | 53 | 1001.6 |
| 20260509184958 | 63 | 188 | 5.2 | 13.0 | 0.00 | 0.00 | 0.00 | 55 | 1001.5 |
| 20260509184500 | 64 | 233 | 5.2 | 14.8 | 0.00 | 0.00 | 0.00 | 53 | 1001.6 |
| 20260509183958 | 64 | 266 | 6.1 | 14.8 | 0.00 | 0.00 | 0.00 | 53 | 1001.4 |
| 20260509183459 | 64 | 240 | 3.5 | 11.3 | 0.00 | 0.00 | 0.00 | 58 | 1001.2 |
| 20260509182958 | 63 | 226 | 5.2 | 14.8 | 0.00 | 0.00 | 0.00 | 54 | 1001.2 |
| 20260509182459 | 62 | 282 | 4.3 | 14.8 | 0.00 | 0.00 | 0.00 | 55 | 1001.1 |
| 20260509181959 | 62 | 198 | 7.0 | 20.0 | 0.00 | 0.00 | 0.00 | 53 | 1001.2 |
| 20260509181458 | 62 | 224 | 5.2 | 20.0 | 0.00 | 0.00 | 0.00 | 55 | 1001.4 |
| 20260509180959 | 61 | 239 | 3.5 | 10.4 | 0.00 | 0.00 | 0.00 | 57 | 1001.4 |
| 20260509180459 | 61 | 244 | 5.2 | 13.9 | 0.00 | 0.00 | 0.00 | 54 | 1001.3 |
| 20260509175957 | 61 | 227 | 3.5 | 11.3 | 0.00 | 0.00 | 0.00 | 58 | 1001.2 |
| 20260509175458 | 60 | 236 | 2.6 | 10.4 | 0.00 | 0.00 | 0.00 | 59 | 1001.2 |
| 20260509174957 | 60 | 213 | 3.5 | 10.4 | 0.00 | 0.00 | 0.00 | 59 | 1001.2 |
| 20260509170957 | 56 | 248 | 2.6 | 7.8 | 0.00 | 0.00 | 0.00 | 71 | 1002.4 |
| 20260509170457 | 56 | 225 | 1.7 | 7.0 | 0.00 | 0.00 | 0.00 | 70 | 1002.5 |
| 20260509170001 | 56 | 244 | 2.6 | 7.0 | 0.00 | 0.00 | 0.00 | 69 | 1002.7 |
| 20260509165459 | 56 | 321 | 0.9 | 5.2 | 0.00 | 0.00 | 0.00 | 68 | 1002.6 |
| 20260509164959 | 56 | 295 | 1.7 | 5.2 | 0.00 | 0.00 | 0.00 | 66 | 1002.6 |
| 20260509164458 | 57 | 251 | 2.6 | 9.6 | 0.00 | 0.00 | 0.00 | 66 | 1002.6 |
| 20260509163959 | 57 | 289 | 3.5 | 9.6 | 0.00 | 0.00 | 0.00 | 66 | 1002.6 |
| 20260509163459 | 57 | 354 | 4.3 | 9.6 | 0.00 | 0.00 | 0.00 | 66 | 1002.6 |
| 20260509162958 | 57 | 297 | 4.3 | 8.7 | 0.00 | 0.00 | 0.00 | 65 | 1002.6 |
| 20260509162459 | 58 | 298 | 1.7 | 11.3 | 0.00 | 0.00 | 0.00 | 68 | 1002.6 |
| 20260509161958 | 57 | 311 | 3.5 | 11.3 | 0.00 | 0.00 | 0.00 | 67 | 1002.6 |
| 20260509161458 | 58 | 356 | 4.3 | 11.3 | 0.00 | 0.00 | 0.00 | 67 | 1002.5 |
| 20260509160958 | 58 | 305 | 4.3 | 10.4 | 0.00 | 0.00 | 0.00 | 66 | 1002.4 |
| 20260509160459 | 58 | 311 | 4.3 | 10.4 | 0.00 | 0.00 | 0.00 | 67 | 1002.1 |
| 20260509160000 | 59 | 240 | 4.3 | 10.4 | 0.00 | 0.00 | 0.00 | 68 | 1001.9 |
| 20260509155458 | 59 | 325 | 2.6 | 10.4 | 0.00 | 0.00 | 0.00 | 68 | 1001.9 |
| 20260509154958 | 60 | 251 | 4.3 | 13.0 | 0.00 | 0.00 | 0.00 | 66 | 1001.8 |
| 20260509154458 | 60 | 331 | 5.2 | 13.0 | 0.00 | 0.00 | 0.00 | 67 | 1001.7 |
| 20260509153959 | 61 | 242 | 5.2 | 13.9 | 0.00 | 0.00 | 0.00 | 67 | 1001.6 |
| 20260509153458 | 62 | 37 | 4.3 | 13.9 | 0.00 | 0.00 | 0.00 | 66 | 1001.3 |
| 20260509152959 | 63 | 309 | 5.2 | 12.2 | 0.00 | 0.00 | 0.00 | 64 | 1001.1 |
| 20260509152459 | 63 | 224 | 5.2 | 12.2 | 0.00 | 0.00 | 0.00 | 63 | 1000.7 |
| 20260509151958 | 65 | 283 | 4.3 | 10.4 | 0.00 | 0.00 | 0.00 | 63 | 1000.6 |
| 20260509151459 | 64 | 257 | 3.5 | 16.5 | 0.00 | 0.00 | 0.00 | 66 | 1000.5 |
| 20260509150959 | 63 | 307 | 5.2 | 16.5 | 0.00 | 0.00 | 0.00 | 66 | 1000.5 |
| 20260509150459 | 64 | 271 | 5.2 | 13.0 | 0.00 | 0.00 | 0.00 | 64 | 1000.2 |
| 20260509145959 | 63 | 221 | 3.5 | 13.0 | 0.00 | 0.00 | 0.00 | 67 | 1000.1 |
| 20260509145459 | 62 | 190 | 3.5 | 13.0 | 0.00 | 0.00 | 0.00 | 66 | 1000.3 |
| 20260509144959 | 63 | 305 | 4.3 | 8.7 | 0.00 | 0.00 | 0.00 | 65 | 1000.1 |
| 20260509144458 | 62 | 321 | 4.3 | 9.6 | 0.00 | 0.00 | 0.00 | 65 | 1000.1 |
| 20260509143958 | 63 | 301 | 3.5 | 9.6 | 0.00 | 0.00 | 0.00 | 65 | 1000.3 |
| 20260509143459 | 63 | 259 | 3.5 | 14.8 | 0.00 | 0.00 | 0.00 | 68 | 1000.2 |
| 20260509142958 | 63 | 218 | 3.5 | 14.8 | 0.00 | 0.00 | 0.00 | 66 | 1000.0 |
| 20260509142459 | 64 | 241 | 6.1 | 13.9 | 0.00 | 0.00 | 0.00 | 66 | 1000.0 |
| 20260509141958 | 63 | 217 | 7.0 | 13.9 | 0.00 | 0.00 | 0.00 | 68 | 1000.0 |
| 20260509141459 | 63 | 199 | 7.0 | 15.6 | 0.00 | 0.00 | 0.00 | 67 | 1000.1 |
| 20260509140959 | 63 | 249 | 6.1 | 15.6 | 0.00 | 0.00 | 0.00 | 69 | 1000.1 |
| 20260509140459 | 62 | 266 | 6.1 | 14.8 | 0.00 | 0.00 | 0.00 | 69 | 1000.0 |
| 20260509135959 | 62 | 288 | 6.1 | 18.2 | 0.00 | 0.00 | 0.00 | 69 | 999.9 |
| 20260509135500 | 61 | 227 | 7.0 | 18.2 | 0.00 | 0.00 | 0.00 | 70 | 1000.0 |
| 20260509135001 | 61 | 262 | 7.8 | 17.4 | 0.00 | 0.00 | 0.00 | 69 | 999.9 |
| 20260509134459 | 62 | 220 | 6.1 | 10.4 | 0.00 | 0.00 | 0.00 | 69 | 1000.1 |
| 20260509133959 | 61 | 314 | 3.5 | 13.9 | 0.00 | 0.00 | 0.00 | 71 | 1000.1 |
| 20260509133459 | 61 | 188 | 7.8 | 14.8 | 0.00 | 0.00 | 0.00 | 70 | 1000.0 |
| 20260509132959 | 61 | 211 | 7.0 | 14.8 | 0.00 | 0.00 | 0.00 | 70 | 1000.3 |
| 20260509132500 | 61 | 246 | 6.1 | 14.8 | 0.00 | 0.00 | 0.00 | 70 | 1000.0 |
| 20260509131959 | 60 | 213 | 6.1 | 10.4 | 0.00 | 0.00 | 0.00 | 70 | 1000.1 |
| 20260509131459 | 60 | 249 | 4.3 | 9.6 | 0.00 | 0.00 | 0.00 | 72 | 1000.2 |
| 20260509130958 | 59 | 201 | 4.3 | 8.7 | 0.00 | 0.00 | 0.00 | 72 | 1000.1 |
| 20260509130459 | 59 | 271 | 2.6 | 7.8 | 0.00 | 0.00 | 0.00 | 73 | 1000.2 |
| 20260509130000 | 58 | 266 | 2.6 | 9.6 | 0.00 | 0.00 | 0.00 | 75 | 1000.3 |
| 20260509125459 | 57 | 237 | 3.5 | 10.4 | 0.00 | 0.00 | 0.00 | 75 | 1000.2 |
| 20260509124959 | 57 | 223 | 4.3 | 10.4 | 0.00 | 0.00 | 0.00 | 76 | 1000.2 |
| 20260509124459 | 57 | 206 | 3.5 | 8.7 | 0.00 | 0.00 | 0.00 | 78 | 1000.4 |
| 20260509123959 | 56 | 222 | 4.3 | 8.7 | 0.00 | 0.00 | 0.00 | 80 | 1000.5 |
| 20260509123459 | 55 | 244 | 4.3 | 9.6 | 0.00 | 0.00 | 0.00 | 81 | 1000.6 |
| 20260509122958 | 55 | 212 | 4.3 | 9.6 | 0.00 | 0.00 | 0.00 | 82 | 1000.8 |
| 20260509122459 | 54 | 174 | 3.5 | 9.6 | 0.00 | 0.00 | 0.00 | 83 | 1000.8 |
| 20260509121959 | 54 | 232 | 3.5 | 9.6 | 0.00 | 0.00 | 0.00 | 83 | 1000.8 |
| 20260509121459 | 54 | 227 | 3.5 | 8.7 | 0.00 | 0.00 | 0.00 | 83 | 1000.9 |
| 20260509121000 | 53 | 238 | 3.5 | 7.8 | 0.00 | 0.00 | 0.00 | 83 | 1000.8 |
| 20260509120459 | 53 | 229 | 2.6 | 7.8 | 0.00 | 0.00 | 0.00 | 84 | 1000.5 |
| 20260509115958 | 53 | 242 | 3.5 | 7.8 | 0.00 | 0.00 | 0.00 | 84 | 1000.5 |
| 20260509115459 | 53 | 292 | 3.5 | 7.8 | 0.00 | 0.00 | 0.00 | 84 | 1000.5 |